Showing default

COSMOS 450, 5553

Orbit data source: Space-Track

COSMOS 450, 5553 is a payload satellite owned by OKB-10 (CIS) in LEO that was launched on Wed, 13 Oct 1971 UTC via a KOSMOS 11K65M launch vehicle from the Plesetsk Missile And Space Complex (PKMTR). Payload-class satellites include a variety of spacecraft equipped with specific instruments for various scientific and technological missions. These include communications satellites like Starlink; space stations such as the ISS; scientific satellites like the Hubble; Earth observation satellites from companies like Planet Labs, Umbra, and HawkEye 360; GPS; miniature CubeSats for education and research; and military/defense satellites.

Loading next visibility...
Identifier
5553, 1971-086G
Orbit
LEO
Country
Flag of CISCIS
Related business
Manufacturer
OKB-10
Mission
Spacecraft
Bus & Motor
STRELA-1 11F625, Unknown motor
Mass
60 kg wet, 60 kg dry
Launch date (UTC)
1971-10-13 (55 years ago)
Launch vehicle
KOSMOS 11K65M
Launch site
Plesetsk Missile And Space Complex (PKMTR)
Object type
Payload
Rocket body
Debris
Shape & HBR
Unknown
Radar Cross Section
Medium (>0.1 m² and <1 m²)

Expand to show TLE details & history
Last TLE update: 2 days ago

TLE from 2 days ago
0 COSMOS 450
1  5553U 71086G   26171.46653405 -.00000013  00000-0  17328-4 0  9990
2  5553  74.0295 336.2764 0042572  80.9393 309.0836 12.42700778480818
Epoch: 2026-06-20T11:11Z
TLE epoch observation values (Epoch: 2026-06-20T11:11:48.541Z)
Latitude
28.43873°
Longitude
-91.4844°
Altitude
1,477.146 km
Speed
7.137 km/s
True Right ascension
23h 00m 35s
True Declination
28° 18' 29"
Sunlit
Object was in daylight at epoch
Visualization orbit readout
Latitude
Unknown
Longitude
Unknown
Altitude
Unknown
Speed
Unknown
Apparent Right ascension
Unknown
Apparent Declination
Unknown
Sunlit
N/A
Visualization observer readout
Local Sidereal Time
23:07:50
Azimuth
Unknown
Elevation
Unknown
Doppler factor
Unknown
Orbital elements
Apogee altitude
1,526.528 km
Perigee altitude
1,459.509 km
Semi-major axis
7,871.156 km
Eccentricity
0.00426
Inclination
74.0295°
RAAN
336.2764°
Arg. of periapsis
80.9393°
True anomaly
308.70365°
Mean anomaly
309.0836°
Eccentric anomaly
308.89375°
Mean motion
3.10803 °/min
Orbital period
115.83 mins
BSTAR
0.000017328
Loading maneuver chart data...
Computing Atmospheric mass density...
Loading historical data...
Loading historical data...
Loading historical data...
Loading historical data...
Loading historical data...
Loading historical data...
Loading historical data...

Documentation

Showing up to 5 results
|